Flag for Germany Weather past 2 weeks in Pfaffenhofen an der Ilm, Bavaria, Germany

Now
41 °F

Passing clouds.


Feels Like: 41 °F
Forecast: 31 / 46 °F
Wind: 1 mph from Southeast

Location: Ingolstadt Airport


UV Index: 0 (Low)

Visibility: N/A


Pressure: 30.01 "Hg

Humidity: 66%

Dew point: 30 °F

Location of Pfaffenhofen an der IlmLocation

Historic Weather in Pfaffenhofen an der Ilm

°F

Pfaffenhofen an der Ilm temperature yesterday

Maximum temperature yesterday: 50 °F (at 3:20 PM)
Minimum temperature yesterday: 32 °F (at 5:20 AM)
Average temperature yesterday: 42 °F

Past Weeks' High & Low Weather Summary

 TemperatureHumidityPressure
High70 °F (Apr 3, 2:20 PM)100% (Apr 3, 3:20 AM)30.36 "Hg (Apr 3, 3:20 AM)
Low28 °F (Apr 17, 6:20 AM)29% (Apr 3, 3:20 PM)29.68 "Hg (Apr 3, 2:20 PM)
Average50 °F70%30.04 "Hg
* Reported Apr 2 9:20 PM — Apr 17 9:20 PM, Pfaffenhofen an der Ilm, Weather by CustomWeather, © 2014

Note: Actual official high and low records may vary slightly from our data, if they occured in-between our weather recording intervals... More about our weather records

Advertising

Historic Weather Conditions — Data for Previous 24 hours

 ConditionsComfort  
Time TempWeatherWind HumidityBarometerVisibility
9:20 PM
Apr 17
45 °FPartly cloudy.2 mph61%30.04 "HgN/A
8:20 PM48 °FCool.5 mph50%30.04 "Hg4 mi
6:20 PM54 °FPartly sunny.8 mph33%30.07 "HgN/A
5:20 PM55 °FScattered clouds.5 mph31%30.09 "HgN/A
4:20 PM54 °FPassing clouds.8 mph30%30.12 "HgN/A
4:00 PM54 °FPassing clouds.7 mph33%30.12 "HgN/A
3:20 PM54 °FPassing clouds.9 mph33%30.15 "HgN/A
2:20 PM52 °FPassing clouds.8 mph35%30.18 "HgN/A
1:20 PM52 °FPassing clouds.7 mph35%30.21 "HgN/A
12:20 PM50 °FPassing clouds.7 mph37%30.24 "HgN/A
11:20 AM48 °FPassing clouds.7 mph43%30.27 "HgN/A
10:20 AM46 °FPassing clouds.7 mph46%30.27 "HgN/A
9:20 AM43 °FPassing clouds.6 mph61%30.30 "HgN/A
8:20 AM37 °FPassing clouds.5 mph70%30.30 "HgN/A
7:20 AM34 °FPassing clouds.3 mph75%30.30 "HgN/A
6:20 AM28 °FPassing clouds.3 mph93%30.30 "HgN/A
5:20 AM30 °FChilly.3 mph86%30.30 "HgN/A
4:20 AM30 °FChilly.2 mph93%30.33 "Hg4 mi
3:20 AM32 °FChilly.2 mph87%30.33 "Hg2 mi
2:20 AM34 °FChilly.1 mph93%30.33 "Hg4 mi
1:20 AM36 °FChilly.2 mph93%30.36 "Hg1 mi
12:20 AM39 °FChilly.2 mph81%30.36 "Hg4 mi
11:20 PM
Apr 16
39 °FChilly.3 mph81%30.36 "Hg4 mi
10:20 PM41 °FQuite cool.2 mph87%30.36 "Hg4 mi
Weather by CustomWeather, © 2014

See weather overview